Weather Roundup
Issued by NWS Corpus Christi, TX

Home | Current Version | Previous Version | Text Only | Print | Product List | Glossary On
Versions: 1 2 3 4 5 6 7 8 9 10 11 12 13 14 15 16 17 18 19 20 21 22 23 24 25 26 27 28 29 30 31 32 33 34 35 36 37 38 39 40 41 42 43 44 45 46 47 48 49 50
000
ASUS44 KCRP 211910
HRRCRP

SOUTH TEXAS REGIONAL WEATHER ROUNDUP
NATIONAL WEATHER SERVICE CORPUS CHRISTI TX
100 PM CST TUE NOV 21 2017


TXZ229>244-212000-
...CORPUS CHRISTI AREA OBSERVATIONS...

CITY           SKY/WX    TMP DP  RH WIND       PRES   REMARKS
CORPUS CHRISTI PTSUNNY   78  61  55 SW13G18   29.84F
NAS CORPUS CHR PTSUNNY   80  65  59 SE15      29.83F
ROCKPORT       MOSUNNY   76  65  68 SE10G16   29.84F
KINGSVILLE ARP FAIR      78  63  59 SE6       29.85F
KINGSVILLE NAS PTSUNNY   80  63  55 S7        29.84F
ALICE          MOSUNNY   77  58  51 W8        29.84F
$$

...VICTORIA AREA OBSERVATIONS...

CITY           SKY/WX    TMP DP  RH WIND       PRES   REMARKS
PORT LAVACA    CLOUDY    75  62  64 SW8       29.86F
VICTORIA       CLOUDY    76  60  57 W8        29.85F
BEEVILLE       FAIR      75  61  61 S8        29.85F
PLEASANTON     NOT AVBL
SAN ANTONIO    PTSUNNY   71  53  52 SW8       29.85F
$$

...LAREDO AREA OBSERVATIONS...

CITY           SKY/WX    TMP DP  RH WIND       PRES   REMARKS
LAREDO         MOSUNNY   74  53  48 SW5       29.86F
COTULLA        MOSUNNY   74  52  46 W3        29.85F
DEL RIO        SUNNY     72  49  44 VRB3      29.85F
MCALLEN        SUNNY     78  63  59 S6        29.84F
HEBBRONVILLE   SUNNY     78  55  45 SW6       29.85F HAZE
$$

...OTHER TEXAS OBSERVATIONS...

CITY           SKY/WX    TMP DP  RH WIND       PRES   REMARKS
BROWNSVILLE    SUNNY     83  63  50 SW10G21   29.84F
HOUSTON        CLOUDY    73  61  65 VRB3      29.87F
COL. STATION   PTSUNNY   72  59  63 SE8       29.88F
AUSTIN         CLOUDY    70  55  59 SW12      29.84F
WACO           SUNNY     69  51  52 VRB6      29.88F
FORT WORTH     PTSUNNY   68  48  48 CALM      29.90R
WICHITA FALLS  PTSUNNY   63  36  36 NE17G23   29.97R
LUBBOCK        MOSUNNY   69  19  15 NE33G43   30.09R
EL PASO        MOSUNNY   66  13  12 CALM      30.14F
$$

...MARINE OBSERVATIONS...

STATION/POSITION TIME  SKY/WX   TEMP    WIND        PRES    VSBY  WAVE   SWELL
                                AIR SEA DIR/SP/G                  HT/PER HT/PER
                 (UTC)          (F)     (DEG/KT/KT) (MB)    (MI)  (FT/S) (FT/S)
PORT ARANSAS     NOT AVBL
BUOY 90 E PORT A 1850            72 78  170/ 10/ 12 1010.7F         2/ 6   2/ 6
BUOY 200 E PT IS 1850            76 80  160/ 16/ 19 1011.4F         3/ 6
BUOY 15 E GALVES 1750            71 71  180/  8/ 10 1012.2          3/ 5   3/ 5
$$




USA.gov is the U.S. government's official web portal to all federal, state and local government web resources and services.